Location: Arrodets-la-Barthe
(43.0306°N, 0.2829°E)
Time: 12:51:11
(UTC+00:00)

YAOGAN 1 - Pass Details

Date: 24 October 2021
Orbit: 618 x 620 km, 97.9° (Epoch: 07 December)

Event Time Altitude Azimuth Distance (km) Brightness Sun altitude
Rises 18:41:58 0° 164° (SSE) 2,882 5.8 -18.9°
Reaches altitude 10° 18:44:09 10° 164° (SSE) 1,981 5.0 -19.3°
Maximum altitude 18:48:28 85° 76° (ENE) 629 2.4 -20.1°
Drops below altitude 10° 18:52:49 10° 348° (NNW) 1,997 5.3 -20.9°
Sets 18:55:00 0° 348° (NNW) 2,907 6.2 -21.3°
